Regional Weather Roundup
Issued by NWS

Home | Current Version | Previous Version | Graphics & Text | Print | Product List | Glossary On
Versions: 1 2 3 4 5 6 7 8 9 10 11 12 13 14 15 16 17 18 19 20 21 22 23 24 25 26 27 28 29 30 31 32 33 34 35 36 37 38 39 40 41 42 43 44 45 46 47 48 49 50
000
ASUS43 KLSX 300107
RWRMO

WEATHER SUMMARY FOR MISSOURI
NATIONAL WEATHER SERVICE SPRINGFIELD MO
800 PM CDT FRI AUG 29 2014

NOTE: "FAIR" INDICATES FEW OR NO CLOUDS BELOW 12,000 FEET WITH NO
       SIGNIFICANT WEATHER AND/OR OBSTRUCTIONS TO VISIBILITY.
       CURRENT SKY AND/OR WEATHER CONDITIONS ARE NOT AVAILABLE FOR
       CHILLICOTHE AND FARMINGTON.

MOZ001>031-035>038-043-044-053-054-300200-
...NORTHERN AND WESTERN MISSOURI...

CITY           SKY/WX    TMP DP  RH WIND       PRES   REMARKS
KANSAS CTY INT RAIN      73  67  81 S17G49    29.83R SQUALL  VSB 1
KANSAS C DTWN  PTCLDY    82  68  62 S9        29.78S
LEE`S SUMMIT   CLEAR     79  68  69 SE7       29.80
ST JOSEPH      PTCLDY    77  70  79 SE5       29.77
CHILLICOTHE      N/A     75  70  84 CALM      29.82S
KIRKSVILLE     MOCLDY    75  70  84 SW5       29.83S

$$
MOZ066>068-077>081-088>096-101>105-300200-
...SOUTHWEST MISSOURI...

CITY           SKY/WX    TMP DP  RH WIND       PRES   REMARKS
SPRINGFIELD    PTCLDY    79  67  66 S12       29.89R
JOPLIN         CLEAR     81  64  56 S13       29.88

$$
MOZ032>034-039>042-045>050-055>058-069>072-300200-
...CENTRAL MISSOURI...

CITY           SKY/WX    TMP DP  RH WIND       PRES   REMARKS
COLUMBIA       MOCLDY    76  74  93 S7        29.86R
JEFFERSON CITY CLOUDY    77  72  84 E5        29.85
ROLLA          CLOUDY    74  68  81 SW7       29.89
SEDALIA        PTCLDY    77  68  73 S6        29.84
WHITEMAN AFB   CLEAR     75  69  81 S6        29.82F
OSAGE BEACH    CLOUDY    75  68  78 CALM      29.87R

$$
MOZ051-052-059>065-300200-
...EAST CENTRAL MISSOURI...

CITY           SKY/WX    TMP DP  RH WIND       PRES   REMARKS
ST LOUIS INTL  CLOUDY    85  67  54 SW8       29.88R
SPIRIT OF STL  CLOUDY    77  69  76 S6        29.87R
ST CHARLES     MOCLDY    75  72  90 CALM      29.87R

$$
MOZ072>076-082>087-097>100-106>115-300200-
...SOUTH CENTRAL AND SOUTHEAST MISSOURI...

CITY           SKY/WX    TMP DP  RH WIND       PRES   REMARKS
CAPE GIRARDEAU PTCLDY    75  71  87 S3        29.93
FARMINGTON     CLOUDY    79  68  69 S16G22    29.94R
POPLAR BLUFF   CLOUDY    80  69  69 N3        29.91
WEST PLAINS    CLOUDY    76  67  73 S7        29.97R

$$



USA.gov is the U.S. government's official web portal to all federal, state and local government web resources and services.